FW8143 Weather Reports


Display with metric or nautical units.
time (UTC)temp
F
wind
direction
speed
MPH
gust
MPH
rain 1hr
in
rain 24hr
in
rain mn
in
humidity
%
barometer
mb
20260901080938 61 236 6.0 15.0 0.00 0.13 0.00 75 1032.3
20260901080649 60 170 4.0 10.0 0.00 0.13 0.00 70 1031.6
20260901075926 60 139 3.0 12.0 0.00 0.13 0.00 71 1031.5
20260901075419 60 134 2.0 12.0 0.00 0.13 0.00 72 1031.5
20260901074912 60 90 3.0 10.0 0.00 0.13 0.00 71 1031.5
20260901074406 60 109 3.0 11.0 0.00 0.13 0.00 72 1031.6
20260901073900 60 120 4.0 11.0 0.00 0.13 0.00 73 1031.7
20260901073354 59 103 4.0 13.0 0.00 0.13 0.00 73 1031.7
20260901072848 59 144 4.0 13.0 0.00 0.13 0.00 74 1031.8
20260901072342 59 85 3.0 9.0 0.00 0.13 0.00 74 1032.0
20260901071835 59 82 2.0 8.0 0.00 0.13 0.00 75 1032.0
20260901071330 59 115 3.0 14.0 0.00 0.13 0.00 76 1031.8
20260901070824 58 94 4.0 14.0 0.00 0.13 0.00 76 1031.8
20260901070319 58 88 3.0 8.0 0.00 0.13 0.00 77 1031.7
20260901065821 58 130 4.0 11.0 0.00 0.13 0.00 78 1031.7
20260901065320 57 66 4.0 11.0 0.00 0.13 0.00 79 1031.7
20260901064822 57 139 4.0 11.0 0.00 0.13 0.00 80 1031.8
20260901064320 57 135 3.0 10.0 0.00 0.13 0.00 82 1031.8
20260901064127 56 140 3.0 11.0 0.00 0.13 0.00 83 1031.8
20260901064021 56 196 3.0 13.0 0.00 0.13 0.00 84 1031.8
20260901063037 56 181 3.0 13.0 0.00 0.13 0.00 86 1031.7
20260901062318 56 205 3.0 11.0 0.00 0.13 0.00 87 1031.8
20260901061818 56 291 1.0 10.0 0.00 0.13 0.00 88 1031.8
20260901061756 56 57 1.0 10.0 0.00 0.13 0.00 88 1031.8
20260901060818 56 38 5.0 10.0 0.00 0.13 0.00 88 1031.8
20260901060318 56 120 5.0 15.0 0.00 0.13 0.00 88 1031.7
20260901060039 56 109 5.0 15.0 0.00 0.13 0.13 89 1031.7
20260901055312 56 61 5.0 13.0 0.00 0.13 0.13 89 1031.7
20260901054806 55 135 5.0 13.0 0.00 0.13 0.13 90 1031.7
20260901054300 55 84 6.0 13.0 0.01 0.13 0.13 90 1031.8
20260901053754 55 94 6.0 11.0 0.01 0.13 0.13 91 1031.7
20260901053248 55 111 7.0 13.0 0.01 0.13 0.13 91 1031.8
20260901052742 55 95 8.0 14.0 0.01 0.13 0.13 91 1031.8
20260901052235 55 106 8.0 14.0 0.01 0.13 0.13 91 1031.8
20260901051731 56 108 6.0 13.0 0.01 0.13 0.13 92 1032.0
20260901051224 56 98 6.0 12.0 0.01 0.13 0.13 92 1032.1
20260901050718 56 82 7.0 12.0 0.01 0.13 0.13 92 1032.2
20260901050212 56 73 8.0 12.0 0.01 0.13 0.13 91 1032.2
20260901045705 56 39 7.0 12.0 0.01 0.13 0.13 91 1032.3
20260901045200 56 90 5.0 10.0 0.01 0.13 0.13 91 1032.6
20260901044654 56 63 4.0 11.0 0.01 0.13 0.13 91 1033.1
20260901044148 56 132 5.0 11.0 0.01 0.12 0.12 90 1033.6
20260901043641 55 142 4.0 9.0 0.01 0.12 0.12 90 1033.5
20260901043136 55 142 3.0 8.0 0.01 0.12 0.12 90 1033.3
20260901042629 55 119 3.0 7.0 0.01 0.12 0.12 91 1033.2
20260901042123 55 111 3.0 7.0 0.02 0.12 0.12 91 1033.0
20260901041618 55 107 4.0 9.0 0.03 0.12 0.12 91 1032.7
20260901041112 56 103 6.0 14.0 0.03 0.12 0.12 91 1032.6
20260901040606 56 106 5.0 14.0 0.03 0.12 0.12 91 1032.5
20260901040059 56 98 2.0 10.0 0.03 0.12 0.12 91 1032.3
20260901035555 56 191 3.0 14.0 0.03 0.12 0.12 91 1032.2
20260901035048 56 93 5.0 14.0 0.03 0.12 0.12 90 1032.0
20260901034542 56 123 6.0 17.0 0.03 0.12 0.12 90 1032.0
20260901034303 56 89 5.0 17.0 0.02 0.11 0.11 90 1032.1
20260901033758 56 133 5.0 13.0 0.02 0.11 0.11 90 1032.5
20260901033024 56 149 7.0 13.0 0.02 0.11 0.11 90 1032.3
20260901032518 56 61 7.0 13.0 0.02 0.11 0.11 89 1032.2
20260901032012 57 67 6.0 13.0 0.01 0.10 0.10 89 1032.6
20260901031506 57 26 5.0 11.0 0.00 0.09 0.09 89 1033.0
20260901031224 57 104 5.0 9.0 0.00 0.09 0.09 90 1032.8
20260901030717 57 101 5.0 9.0 0.00 0.09 0.09 90 1032.8
20260901025948 57 65 4.0 9.0 0.00 0.09 0.09 90 1032.8
20260901025441 57 60 2.0 7.0 0.00 0.09 0.09 91 1032.8
20260901024936 57 98 2.0 6.0 0.00 0.09 0.09 91 1032.8
20260901024430 57 115 4.0 7.0 0.00 0.09 0.09 91 1032.7
20260901023924 57 88 5.0 9.0 0.00 0.09 0.09 90 1032.3
20260901023418 57 67 5.0 9.0 0.01 0.09 0.09 90 1032.1
20260901022912 57 88 4.0 9.0 0.01 0.09 0.09 91 1032.1
20260901022405 57 95 4.0 9.0 0.01 0.09 0.09 91 1032.1
20260901021900 57 105 6.0 14.0 0.01 0.09 0.09 91 1032.0
20260901021354 57 131 8.0 14.0 0.02 0.09 0.09 91 1031.6
20260901020848 58 96 8.0 14.0 0.02 0.09 0.09 90 1031.2
20260901020342 58 71 8.0 13.0 0.02 0.09 0.09 91 1031.2
20260901015835 58 23 7.0 13.0 0.02 0.09 0.09 91 1031.2
20260901015330 58 11 4.0 9.0 0.02 0.09 0.09 91 1031.5
20260901014824 58 46 3.0 8.0 0.03 0.09 0.09 91 1031.7
20260901014318 58 69 3.0 6.0 0.03 0.09 0.09 90 1031.8
20260901014031 58 82 3.0 5.0 0.03 0.09 0.09 90 1031.7
20260901013311 58 90 3.0 8.0 0.02 0.08 0.08 90 1031.7
20260901012812 58 92 4.0 9.0 0.02 0.08 0.08 90 1031.5
20260901012537 58 34 4.0 9.0 0.02 0.08 0.08 90 1031.3
20260901011808 58 77 5.0 14.0 0.03 0.08 0.08 89 1031.5
20260901011531 58 117 6.0 14.0 0.02 0.07 0.07 89 1031.3
20260901010808 59 92 6.0 11.0 0.04 0.07 0.07 89 1031.3
20260901010307 59 111 6.0 11.0 0.05 0.07 0.07 88 1031.3
20260901005808 59 103 4.0 9.0 0.05 0.07 0.07 88 1031.5
20260901005310 60 97 3.0 7.0 0.05 0.07 0.07 88 1031.6
20260901005028 60 88 4.0 11.0 0.04 0.06 0.06 87 1031.6